Regional Weather Roundup
Issued by NWS

Home | Current Version | Previous Version | Graphics & Text | Print | Product List | Glossary Off
Versions: 1 2 3 4 5 6 7 8 9 10 11 12 13 14 15 16 17 18 19 20 21 22 23 24 25 26 27 28 29 30 31 32 33 34 35 36 37 38 39 40 41 42 43 44 45 46 47 48 49 50

625
ASUS43 KTOP 271359
RWRKS

WEATHER ROUNDUP FOR KANSAS
NATIONAL WEATHER SERVICE GOODLAND KS
900 AM CDT TUE SEP 27 2016

NOTE:  "FAIR" INDICATES FEW OR NO CLOUDS BELOW 12,000 FEET WITH NO
SIGNIFICANT WEATHER AND/OR OBSTRUCTIONS TO VISIBILITY.

KSZ001>006-013>018-027>032-041>047-271500-
NORTHWEST KANSAS

CITY           SKY/WX    TMP DP  RH WIND       PRES   REMARKS
GOODLAND       SUNNY     55  42  61 W6        30.18R
HAYS           SUNNY     55  39  54 NW8       30.11R
HILL CITY      SUNNY     54  47  77 NW3       30.12S
RUSSELL        SUNNY     55  47  74 W5        30.09R
$$

KSZ061>065-074>080-084>089-271500-
SOUTHWEST KANSAS

CITY           SKY/WX    TMP DP  RH WIND       PRES   REMARKS
DODGE CITY     SUNNY     58  40  51 W7        30.15R
ELKHART          N/A     54  35  48 W7          N/A
GARDEN CITY    SUNNY     52  39  61 W5        30.15S
GREAT BEND     SUNNY     55  39  54 W8        30.10S
LIBERAL        SUNNY     55  37  50 W9        30.18S
$$

KSZ066>073-081>083-090>101-271500-
SOUTHEAST KANSAS

CITY           SKY/WX    TMP DP  RH WIND       PRES   REMARKS
CHANUTE        SUNNY     60  49  66 SW7       30.09F
COFFEYVILLE    SUNNY     56  53  90 S3        30.12F
HUTCHINSON     SUNNY     59  45  59 W7        30.09S
MEDICINE LODGE   N/A     55  47  74 S3        30.12S
NEWTON         SUNNY    N/A N/A N/A SW10      30.10R
PARSONS        SUNNY     57  51  80 SW3       30.12F
WICHITA INTL   SUNNY     61  50  67 SW5       30.09F
WICHITA JABRA  SUNNY     63  46  54 SW10      30.09F
WINFIELD       SUNNY     59  52  77 SW6       30.13S
$$

KSZ007>012-019>026-033>040-048>060-102>105-271500-
NORTHEAST KANSAS

CITY           SKY/WX    TMP DP  RH WIND       PRES   REMARKS
CONCORDIA      SUNNY     58  50  75 W10       30.06S
EMPORIA        SUNNY     65  46  50 SW8       30.07F
LAWRENCE       SUNNY     57  54  89 CALM      30.06S
MANHATTAN      SUNNY     56  49  77 SW8       30.06F
OLATHE IND     SUNNY     58  48  69 SW8       30.07S
OLATHE EXE     SUNNY     58  46  64 W9        30.06F
SALINA         SUNNY     57  47  69 SW5       30.08S
TOPEKA BILLARD SUNNY     59  51  75 SW3       30.05F
TOPEKA FORBES  SUNNY     60  50  69 SW6       30.05F
$$




USA.gov is the U.S. government's official web portal to all federal, state and local government web resources and services.